Weather History for Rawlins, WY

Change the Weather History Date:

Wednesday, May 15, 2013

  Actual Average Record
Temperature  
Mean Temperature 59 °F 49 °F  
Max Temperature 77 °F 63 °F 81 °F (2012)
Min Temperature 41 °F 35 °F 22 °F (1983)
Degree Days  
Heating Degree Days 6 16  
Month to date heating degree days 235 270  
Since 1 July heating degree days 7714 7989  
Cooling Degree Days 0 0  
Month to date cooling degree days 1 0  
Year to date cooling degree days 1 0  
Growing Degree Days 9 (Base 50)    
Moisture  
Dew Point 34 °F    
Average Humidity 48    
Maximum Humidity 80    
Minimum Humidity 16    
Precipitation  
Precipitation 0.08 in 0.04 in 1.58 in (1991)
Month to date precipitation 0.18 0.66  
Year to date precipitation 1.77 3.17  
Sea Level Pressure  
Sea Level Pressure 29.83 in    
Wind  
Wind Speed 8 mph (South)    
Max Wind Speed 29 mph    
Max Gust Speed 37 mph    
Visibility 10 miles    
Events Rain , Thunderstorm    
T = Trace of Precipitation, MM = Missing Value Source: NWS Daily Summary

Daily Weather History Graph

Daily Weather History Graph

Search for Another Location

Airport:

Trip Planner

Search our weather history database for the weather conditions in past years. The results will help you decide how hot, cold, wet, or windy it might be!

Date:

Astronomy

May. 15, 2013 Rise Set
Actual Time 5:48 AM MDT 8:22 PM MDT
Civil Twilight 5:16 AM MDT 8:54 PM MDT
Nautical Twilight 4:37 AM MDT 9:34 PM MDT
Astronomical Twilight 3:52 AM MDT 10:19 PM MDT
Moon 10:27 AM MDT (5/15) 12:09 AM MDT (5/15)
Length of Visible Light 15h 37m
Length of Day
14h 33m
Waxing Crescent, 27% of the Moon is Illuminated
May 15
Waxing Crescent
May 17
First Quarter
May 24
Full
May 31
Last Quarter
Jun 8
New

Hourly Weather History & Observations

Time (MDT) Temp. Windchill Dew Point Humidity Pressure Visibility Wind Dir Wind Speed Gust Speed Precip Events Conditions
12:53 AM 52.0 °F - 27.0 °F 38% 29.80 in 10.0 mi SE 9.2 mph - N/A   Partly Cloudy
1:53 AM 48.9 °F - 27.0 °F 43% 29.80 in 10.0 mi Calm Calm - N/A   Scattered Clouds
2:53 AM 48.0 °F - 28.0 °F 46% 29.80 in 10.0 mi WNW 5.8 mph - N/A   Scattered Clouds
3:53 AM 45.0 °F 43.5 °F 26.1 °F 48% 29.81 in 10.0 mi East 3.5 mph - N/A   Clear
4:53 AM 43.0 °F 37.7 °F 27.0 °F 53% 29.83 in 10.0 mi North 9.2 mph - N/A   Partly Cloudy
5:53 AM 43.0 °F 40.3 °F 28.0 °F 56% 29.84 in 10.0 mi NW 4.6 mph - N/A   Scattered Clouds
6:53 AM 48.9 °F - 33.1 °F 54% 29.82 in 10.0 mi North 6.9 mph - N/A   Clear
7:53 AM 57.0 °F - 32.0 °F 39% 29.83 in 10.0 mi Calm Calm - N/A   Clear
8:53 AM 62.1 °F - 30.0 °F 30% 29.85 in 10.0 mi Calm Calm - N/A   Clear
9:53 AM 66.0 °F - 32.0 °F 28% 29.84 in 10.0 mi WSW 4.6 mph - N/A   Clear
10:53 AM 70.0 °F - 30.9 °F 24% 29.83 in 10.0 mi WSW 4.6 mph - N/A   Clear
11:53 AM 73.9 °F - 27.0 °F 18% 29.79 in 10.0 mi WSW 8.1 mph - N/A   Clear
12:53 PM 75.9 °F - 26.1 °F 16% 29.75 in 10.0 mi Variable 5.8 mph 18.4 mph N/A   Clear
1:53 PM 73.0 °F - 28.0 °F 19% 29.75 in 10.0 mi SSE 16.1 mph 21.9 mph N/A   Mostly Cloudy
2:32 PM 71.6 °F - 30.2 °F 22% 30.01 in 10.0 mi SE 11.5 mph 24.2 mph 0.00 in Thunderstorm Thunderstorm
2:53 PM 73.0 °F - 30.0 °F 20% 29.75 in 10.0 mi ESE 17.3 mph 21.9 mph 0.00 in   Mostly Cloudy
3:53 PM 69.1 °F - 30.0 °F 23% 29.78 in 10.0 mi SE 11.5 mph 18.4 mph N/A   Overcast
4:37 PM 55.4 °F - 42.8 °F 63% 30.07 in 5.0 mi Variable 5.8 mph - 0.03 in Rain , Thunderstorm Light Rain
4:53 PM 55.9 °F - 44.1 °F 64% 29.92 in 5.0 mi Calm Calm - 0.06 in Rain Light Rain
5:53 PM 54.0 °F - 43.0 °F 66% 29.88 in 10.0 mi South 21.9 mph 29.9 mph 0.01 in   Overcast
6:53 PM 52.0 °F - 45.0 °F 77% 29.85 in 10.0 mi ESE 13.8 mph - 0.00 in   Clear
7:53 PM 51.1 °F - 45.0 °F 80% 29.81 in 10.0 mi SSE 9.2 mph - N/A   Clear
8:53 PM 50.0 °F - 44.1 °F 80% 29.80 in 10.0 mi SE 4.6 mph - N/A   Clear
9:53 PM 51.1 °F - 45.0 °F 80% 29.79 in 10.0 mi SW 3.5 mph - N/A   Overcast
10:53 PM 53.1 °F - 43.0 °F 69% 29.78 in 10.0 mi West 13.8 mph - 0.00 in Rain Light Rain
11:53 PM 51.1 °F - 45.0 °F 80% 29.76 in 10.0 mi SW 8.1 mph - 0.00 in   Mostly Cloudy